Regional Weather Roundup
Issued by NWS Sterling, VA

Home | Current Version | Previous Version | Graphics & Text | Print | Product List | Glossary On
Versions: 1 2 3 4 5 6 7 8 9 10 11 12 13 14 15 16 17 18 19 20 21 22 23 24 25 26 27 28 29 30 31 32 33 34 35 36 37 38 39 40 41 42 43 44 45 46 47 48 49 50
000
ASUS41 KLWX 260210
RWRLWX

REGIONAL WEATHER ROUNDUP
NATIONAL WEATHER SERVICE BALTIMORE MD/WASHINGTON DC
900 PM EST TUE NOV 25 2014

Note: "FAIR" indicates few or no clouds below 12,000 feet
with no significant weather and/or obstructions to visibility.
 TC=TEMPERATURE CELSIUS

 * =Non NWS site. Station does not report precipitation (e.g. rain,
    snow, etc.), thunder, or fog.

DCZ001-MDZ009-015-VAZ040>042-051-053>054-260300-
WASHINGTON METRO

CITY           SKY/WX    TMP DP  RH WIND       PRES   REMARKS
WASHINGTON NAT CLOUDY    52  35  52 CALM      30.14R
DULLES         MOCLDY    41  36  82 CALM      30.12S
ANDREWS AFB    CLOUDY    46  36  69 CALM      30.12S
FT BELVOIR     CLOUDY    44  37  76 CALM      30.13S
QUANTICO       CLOUDY    48  39  71 CALM      30.14R
COLLEGE PARK*  CLOUDY    45  36  70 CALM      30.14R
LEESBURG*      MOCLDY    43  36  75 CALM      30.13S
MANASSAS*      CLOUDY    43  39  87 CALM      30.13
GAITHERSBURG*  MOCLDY    41  30  65 CALM      30.17R

$$

MDZ006>007-011-014-260300-
BALTIMORE METRO

CITY           SKY/WX    TMP DP  RH WIND       PRES   REMARKS
BWI AIRPORT    CLOUDY    43  33  68 CALM      30.14R
MD SCIENCE CTR   N/A     50  35  56 MISG      30.14R
ANNAPOLIS      CLOUDY    47  40  76 CALM      30.14R
FORT MEADE*    CLOUDY    39  32  75 CALM      30.16R

$$

MDZ012-015-019>023-260300-
MARYLAND EASTERN SHORE

CITY           SKY/WX    TMP DP  RH WIND       PRES   REMARKS
OCEAN CITY     CLOUDY    48  42  80 CALM      30.12R
SALISBURY      CLOUDY    50  42  74 CALM      30.12R
BAY BRIDGE AP*   N/A     46  37  71 CALM      30.14R
CAMBRIDGE*     CLOUDY    48  41  76 CALM      30.13R
EASTON*        CLOUDY    48  41  76 CALM      30.17R

$$

MDZ017>025-260300-
SOUTHERN MARYLAND

CITY           SKY/WX    TMP DP  RH WIND       PRES   REMARKS
PATUXENT RIVER CLOUDY    49  42  77 NW6       30.12R
ST INIGOES     CLOUDY    47  40  76 CALM      30.11R
LEONARDTOWN*   CLOUDY    46  37  71 CALM      30.14R

$$

MDZ003>005-260300-
NORTH CENTRAL MARYLAND

CITY           SKY/WX    TMP DP  RH WIND       PRES   REMARKS
FREDERICK*     MOCLDY    37  32  81 CALM      30.18R
HAGERSTOWN APT PTCLDY    42  29  59 S5        30.14R
WESTMINSTER*   MOCLDY    41  30  65 CALM      30.12R

$$

MDZ501>502-260300-
WESTERN MARYLAND

CITY           SKY/WX    TMP DP  RH WIND       PRES   REMARKS
OAKLAND*       PTCLDY    36  23  60 NW6       30.09R
CUMBERLAND*    PTCLDY    45  30  57 CALM      30.17R

$$

VAZ025>031-260300-
SHENANDOAH VALLEY

CITY           SKY/WX    TMP DP  RH WIND       PRES   REMARKS
WINCHESTER*    PTCLDY    41  27  56 NW3       30.12R
FRONT ROYAL*   FAIR      41  30  65 CALM      30.12R
LURAY*         FAIR      41  36  81 CALM      30.12S
NEW MARKET*    FAIR      35  32  87 CALM      30.12S
STAUNTON*      MOCLDY    40  32  71 CALM      30.13R
WAYNESBORO*    FAIR      42  28  58 CALM      30.12R

$$

WVZ021-048>050-054>055-260300-
EASTERN WEST VIRGINIA PANHANDLE

CITY           SKY/WX    TMP DP  RH WIND       PRES   REMARKS
MARTINSBURG    PTCLDY    39  27  62 CALM      30.12R
PETERSBURG*    MOCLDY    35  28  77 W5        30.14R

$$

VAZ036>039-050-260300-
CENTRAL FOOTHILLS

CITY           SKY/WX    TMP DP  RH WIND       PRES   REMARKS
CHARLOTTESVILL CLOUDY    47  32  56 N3        30.10S
CULPEPER*      CLOUDY    45  39  81 CALM      30.13S
ORANGE*        CLOUDY    45  39  81 CALM      30.13S
GORDONSVILLE*  FAIR      43  38  82 CALM      30.11F
WARRENTON*     FAIR      42  42  99 CALM      30.12S

$$

VAZ055>057-260300-
NORTH AND CENTRAL PIEDMONT

CITY           SKY/WX    TMP DP  RH WIND       PRES   REMARKS
FREDERICKSBRG* CLOUDY    49  41  74 CALM      30.12S
STAFFORD*      CLOUDY    44  37  76 CALM      30.16F

$$

NCZ024-NYZ072-PAZ021-071-VAZ022-071-260300-
OTHER REGIONAL OBSERVATIONS

CITY           SKY/WX    TMP DP  RH WIND       PRES   REMARKS
NEW YORK CITY  MOCLDY    52  29  41 VRB5      30.14R
PHILADELPHIA   MOCLDY    49  32  52 SW6       30.14R
PITTSBURGH     PTCLDY    33  25  72 CALM      30.16R
ROANOKE        CLOUDY    46  30  53 E3        30.10F
RICHMOND       CLOUDY    52  41  66 E5        30.12R
RALEIGH        LGT RAIN  50  45  83 CALM      30.13R

$$

ANZ530>537-260300-
MARINE OBSERVATIONS

STATION/POSITION TIME  TEMP    WIND        PRES
                       AIR SEA DIR/SP/G
                 (UTC) (F)     (DEG/KT/KT) (MB)
THOMAS PT LIGHT  0200   50 48  250/  3/  3 1021.6R
BALT KEY BRIDGE  0200   48     230/  1/  2 1020.1R
COVE POINT       0200   51     250/  1/  2 1020.2R
LEWISETTA        0200   50 50     CALM     1019.3S
SOLOMONS ISLAND  0200      50                N/A
PINEY POINT      0200          360/  4/  5   N/A

$$



USA.gov is the U.S. government's official web portal to all federal, state and local government web resources and services.